MKU269 PHNL-PHOG

Flight info

Callsign MKU269
Flight time N/A
Altitude 15000
Route PALAY3 LNY CAMPS4
Aircraft DH8D/M-SDE2E3FGRY/H

Departure

Time N/A
Airport Daniel K. Inouye International Airport (PHNL)

Arrival

Time 2026-04-30 05:00
Airport Kahului International Airport (PHOG)
Time Latitude Longitude Altitude Speed Heading
2026-04-30 04:49 20.76095 -156.95856 12952 ft 325 kts 106°
2026-04-30 04:49 20.75482 -156.93634 12912 ft 295 kts 103°
2026-04-30 04:49 20.74944 -156.91583 12458 ft 284 kts 103°
2026-04-30 04:49 20.74423 -156.89598 11888 ft 276 kts 103°
2026-04-30 04:50 20.73908 -156.87643 11313 ft 272 kts 103°
2026-04-30 04:50 20.73419 -156.85799 10757 ft 264 kts 103°
2026-04-30 04:50 20.72915 -156.83907 10168 ft 260 kts 103°
2026-04-30 04:50 20.72430 -156.82086 9596 ft 257 kts 104°
2026-04-30 04:51 20.71951 -156.80307 9013 ft 250 kts 104°
2026-04-30 04:51 20.71470 -156.78517 8418 ft 248 kts 103°
2026-04-30 04:51 20.71003 -156.76787 7984 ft 237 kts 103°
2026-04-30 04:51 20.70554 -156.75130 7669 ft 235 kts 103°
2026-04-30 04:52 20.70097 -156.73448 7378 ft 234 kts 103°
2026-04-30 04:52 20.69654 -156.71811 7108 ft 232 kts 103°
2026-04-30 04:52 20.69205 -156.70160 6846 ft 232 kts 103°
2026-04-30 04:52 20.68763 -156.68533 6586 ft 227 kts 103°
2026-04-30 04:53 20.68330 -156.66942 6336 ft 224 kts 103°
2026-04-30 04:53 20.67911 -156.65399 6091 ft 222 kts 103°
2026-04-30 04:53 20.67476 -156.63797 5836 ft 218 kts 103°
2026-04-30 04:53 20.67053 -156.62239 5591 ft 218 kts 103°
2026-04-30 04:54 20.66913 -156.60719 5238 ft 215 kts 77°
2026-04-30 04:54 20.67706 -156.59399 4992 ft 213 kts 43°
2026-04-30 04:54 20.68910 -156.58441 4721 ft 215 kts 38°
2026-04-30 04:54 20.70118 -156.57541 4443 ft 214 kts 37°
2026-04-30 04:55 20.71358 -156.56627 4157 ft 216 kts 37°
2026-04-30 04:55 20.72564 -156.55739 3703 ft 224 kts 37°
2026-04-30 04:55 20.73853 -156.54803 3398 ft 221 kts 37°
2026-04-30 04:55 20.75121 -156.53879 3160 ft 218 kts 37°
2026-04-30 04:56 20.76331 -156.52986 2907 ft 211 kts 38°
2026-04-30 04:56 20.77513 -156.52116 2627 ft 199 kts 38°
2026-04-30 04:56 20.78623 -156.51297 2379 ft 183 kts 38°
2026-04-30 04:56 20.79600 -156.50572 2195 ft 170 kts 38°
2026-04-30 04:57 20.80543 -156.49863 2024 ft 158 kts 39°
2026-04-30 04:57 20.81389 -156.49240 1773 ft 141 kts 38°
2026-04-30 04:57 20.82143 -156.48686 1556 ft 121 kts 39°
2026-04-30 04:57 20.82803 -156.48190 1420 ft 117 kts 41°
2026-04-30 04:58 20.83483 -156.47656 1332 ft 124 kts 40°
2026-04-30 04:58 20.84171 -156.47142 1185 ft 122 kts 38°
2026-04-30 04:58 20.84858 -156.46642 1029 ft 116 kts 38°
2026-04-30 04:58 20.85504 -156.46164 877 ft 112 kts 39°
2026-04-30 04:59 20.86129 -156.45692 720 ft 107 kts 38°
2026-04-30 04:59 20.86736 -156.45244 607 ft 107 kts 38°
2026-04-30 04:59 20.87385 -156.44753 481 ft 120 kts 37°
2026-04-30 04:59 20.88065 -156.44258 316 ft 118 kts 37°
2026-04-30 05:00 20.88735 -156.43765 156 ft 116 kts 36°
2026-04-30 05:00 20.89370 -156.43294 60 ft 103 kts 36°
2026-04-30 05:00 20.89737 -156.43022 60 ft 34 kts 34°
2026-04-30 05:00 20.89884 -156.42912 60 ft 18 kts 34°
2026-04-30 05:01 20.89961 -156.42885 60 ft 7 kts 352°
2026-04-30 05:01 20.90008 -156.42920 60 ft 9 kts 291°
2026-04-30 05:01 20.89989 -156.42992 60 ft 12 kts 219°
2026-04-30 05:01 20.89914 -156.43047 60 ft 14 kts 214°
2026-04-30 05:02 20.89824 -156.43114 60 ft 16 kts 216°
2026-04-30 05:02 20.89726 -156.43188 60 ft 18 kts 214°
2026-04-30 05:02 20.89622 -156.43265 60 ft 19 kts 215°
2026-04-30 05:02 20.89511 -156.43347 60 ft 19 kts 214°
2026-04-30 05:03 20.89397 -156.43430 60 ft 20 kts 214°
2026-04-30 05:03 20.89315 -156.43504 60 ft 5 kts 226°
2026-04-30 05:03 20.89329 -156.43535 59 ft 6 kts 340°
2026-04-30 05:03 20.89370 -156.43553 59 ft 6 kts 314°
2026-04-30 05:04 20.89398 -156.43593 59 ft 3 kts 306°
2026-04-30 05:04 20.89400 -156.43596 59 ft 0 kts 306°